Location: Bosdarros
(43.2167°N, 0.3667°W)
Time: 15:34:15
(UTC+00:00)

Cosmos 1812 Rocket - Pass Details

Date: 22 April 2021
Orbit: 606 x 632 km, 82.5° (Epoch: 12 May)

Event Time Altitude Azimuth Distance (km) Brightness Sun altitude
Exits shadow 20:14:33 - 183° (S) 2,698 6.6 -14.3°
Reaches altitude 10° 20:16:17 10° 183° (S) 1,994 5.9 -14.5°
Maximum altitude 20:20:42 80° 98° (E) 645 3.5 -15.2°
Drops below altitude 10° 20:25:12 10° 11° (N) 2,021 6.5 -15.9°
Sets 20:27:27 0° 10° (N) 2,935 7.4 -16.2°
